Regional Weather Roundup
Issued by NWS

Home | Current Version | Previous Version | Text Only | Print | Product List | Glossary Off
Versions: 1 2 3 4 5 6 7 8 9 10 11 12 13 14 15 16 17 18 19 20 21 22 23 24 25 26 27 28 29 30 31 32 33 34 35 36 37 38 39 40 41 42 43 44 45 46 47 48 49 50

000
ASUS45 KCYS 281110
RWRWY

WYOMING REGIONAL WEATHER ROUNDUP
NATIONAL WEATHER SERVICE CHEYENNE WY
400 AM MST WED JAN 28 2015

NOTE:  "FAIR" INDICATES FEW OR NO CLOUDS BELOW 12,000 FEET
WITH NO SIGNIFICANT WEATHER AND/OR OBSTRUCTIONS TO VISIBILITY.

WYZ001-281200-
YELLOWSTONE NATIONAL PARK

CITY           SKY/WX    TMP DP  RH WIND       PRES   REMARKS
LK YELLOWSTONE   N/A     30  29  96 CALM      30.13R
W YELLOWSTONE  NOT AVBL

$$
WYZ002>013-054>058-071-098>099-281200-
NORTHERN WYOMING

CITY           SKY/WX    TMP DP  RH WIND       PRES   REMARKS
JACKSON        CLOUDY    34  32  93 SW3       30.11S
CODY           CLOUDY    46  30  53 N5        29.99R
GREYBULL       LGT RAIN  33  31  92 CALM      30.00R
WORLAND        CLOUDY    29  26  89 NW3       29.98R
SHERIDAN       CLOUDY    51  32  48 W14G23    29.91R
BUFFALO        CLOUDY    47  26  44 N7        29.92R
GILLETTE       CLOUDY    45  29  53 W10       29.88S
HULETT           N/A    N/A N/A N/A MISG        N/A
NEWCASTLE      FAIR      32  28  86 N7        29.91R WCI  26

$$
WYZ014>020-022>026-101>103-281200-
CENTRAL WYOMING

CITY           SKY/WX    TMP DP  RH WIND       PRES   REMARKS
BIG PINEY      CLOUDY    24  21  88 NE5       30.16R WCI  18
PINEDALE       CLOUDY    23  21  93 CALM      30.15F
DUBOIS         PTSUNNY   34  28  80 N10G17    30.05S WCI  26
LANDER         FAIR      37  24  59 SW5       30.02R WCI  33
RIVERTON       FAIR      34  26  72 W7        30.01F WCI  28
CASPER         FAIR      38  29  70 W7        30.02S WCI  33
DOUGLAS        FAIR      44  28  53 NW10      29.98R

$$
WYZ021-027>030-104>119-281200-
SOUTHERN WYOMING

CITY           SKY/WX    TMP DP  RH WIND       PRES   REMARKS
EVANSTON       CLOUDY    34  30  85 SW13      30.20R WCI  25
KEMMERER       CLOUDY    32  32 100 SW8       30.18S WCI  25
FORT BRIDGER   FAIR      35  32  89 W8        30.21R WCI  28
ROCK SPRINGS   CLOUDY    32  28  85 SW8       30.17F WCI  25
DIXON          CLOUDY    38  33  82 S21G28    30.19F WCI  28
RAWLINS        FAIR      35  30  82 SW16      30.12F WCI  25
SARATOGA       CLOUDY    36  30  80 W3        30.15S
LARAMIE        CLOUDY    37  28  70 W13       30.08S WCI  29
CHEYENNE       FAIR      46  29  51 W25G35    30.00F
TORRINGTON     FAIR      49  32  52 W14G20    29.94F
PINE BLUFFS    FAIR      43  30  61 NW13      29.99R

$$


USA.gov is the U.S. government's official web portal to all federal, state and local government web resources and services.